Wind_Speed
17 17 18 19 22 17 14 13 12 11 10 10 9 9 9 9 9 9 10 10 10 10 10 10 10 9 8 8 7 8 8 8 9 9 9 8 8 9 9 8 8 8 8 8 8 8 8 8 9
16 15 16 21 18 13 13 12 12 11 11 10 9 8 8 9 9 9 9 9 10 10 9 9 9 8 7 6 6 6 6 7 8 8 7 7 8 8 8 8 8 9 8 8 8 8 8 9 8
15 15 18 19 13 12 11 11 11 11 10 10 9 9 8 8 9 9 9 9 9 9 8 8 7 7 6 6 6 6 7 6 6 6 7 7 7 7 8 8 8 8 7 7 7 8 8 8 8
13 17 20 14 10 11 10 10 11 11 10 10 10 9 8 8 8 8 8 8 8 7 7 7 7 7 6 6 5 5 6 5 5 6 6 6 7 7 7 8 7 7 6 6 7 7 7 7 7
13 16 15 9 10 10 9 9 9 9 10 10 10 9 9 9 8 8 8 8 7 7 6 6 6 6 5 5 5 4 4 4 5 5 6 6 6 6 6 6 6 6 6 6 6 6 5 5 6
12 14 10 8 8 9 9 9 9 9 10 10 10 10 9 9 8 8 7 8 7 7 6 5 5 5 4 4 4 4 3 3 4 4 5 5 5 5 5 5 5 5 5 6 5 5 5 5 5
12 13 8 6 7 8 8 8 8 9 10 10 10 10 10 9 8 8 8 8 8 7 6 6 5 5 5 4 4 3 3 3 3 3 4 4 4 5 5 5 5 5 5 5 5 5 5 6 5
12 12 6 3 6 8 7 7 7 8 9 10 11 10 9 9 8 8 8 8 8 8 7 6 6 5 5 4 4 3 3 3 3 3 3 4 4 4 5 5 5 5 4 5 5 5 5 5 5
11 10 4 2 4 6 6 6 6 7 9 10 11 11 9 9 8 8 8 8 8 8 7 6 5 5 5 4 4 3 3 3 2 3 3 3 3 3 3 3 4 4 4 4 4 5 5 5 5
10 7 1 1 3 4 6 5 5 6 7 8 10 10 9 9 8 8 8 8 8 8 7 6 6 6 5 5 4 4 3 3 3 3 3 3 4 3 2 3 3 4 4 4 3 4 4 4 4
8 5 3 2 3 2 3 4 5 6 7 8 9 9 9 8 8 8 8 8 7 8 7 7 6 6 6 6 5 4 3 3 3 3 3 3 3 3 3 3 2 2 3 3 3 3 4 3 3
7 6 5 4 4 2 1 3 4 6 6 7 8 9 8 8 8 8 8 8 8 7 7 7 6 6 6 6 5 5 4 3 3 3 3 3 3 3 3 3 3 2 2 2 3 2 3 3 2
8 7 6 4 3 3 2 3 4 4 5 6 8 8 8 8 8 8 8 9 9 8 8 7 6 6 6 6 5 4 4 3 2 2 3 3 3 3 3 3 3 3 3 2 1 1 1 1 2
10 8 6 6 5 5 3 4 5 5 6 7 7 7 7 8 8 8 8 8 9 9 8 7 7 6 6 6 5 4 4 3 2 2 2 3 3 3 3 3 3 3 3 3 2 1 1 1 2
11 9 7 7 6 5 4 6 5 5 6 8 8 7 7 8 8 8 8 8 9 9 8 8 7 7 7 7 6 5 4 3 3 3 3 3 3 3 3 4 3 3 3 3 3 2 2 2 2
11 10 9 10 8 7 6 7 8 7 8 8 8 8 7 8 8 8 8 9 9 9 9 8 8 7 7 7 7 6 5 4 3 4 3 4 4 4 4 4 5 5 5 5 4 4 3 3 3
11 10 10 11 10 9 8 8 10 9 9 9 8 7 7 7 8 9 9 9 9 9 9 9 9 8 8 8 8 7 6 5 4 4 4 5 5 5 5 6 6 6 6 6 5 6 5 4 4
12 12 11 11 13 11 10 10 11 11 10 9 9 7 6 8 9 9 9 9 10 10 10 9 9 9 8 8 8 7 6 6 5 5 5 6 6 6 6 6 6 6 6 6 6 7 6 6 6
14 14 12 12 16 15 13 13 12 11 10 9 9 10 8 8 9 9 9 10 10 10 10 10 10 10 10 9 9 8 7 6 6 6 6 6 7 7 7 7 7 7 7 7 7 8 8 7 7
20 17 14 14 18 18 16 15 14 13 11 11 10 10 9 10 9 9 9 9 10 10 11 10 10 11 10 9 8 8 7 7 8 8 7 7 7 7 7 7 8 8 7 8 9 8 8 8 9
23 20 17 17 19 19 16 15 16 17 15 13 12 12 10 10 10 9 9 9 10 10 11 11 11 11 10 9 9 8 8 8 9 8 7 7 7 7 7 8 8 8 7 8 9 9 9 9 9
24 21 19 19 21 19 16 16 17 18 16 14 13 13 13 12 11 11 10 10 10 11 11 11 11 11 10 9 9 9 9 9 9 8 8 8 8 8 8 8 8 8 8 9 9 9 9 9 9
25 21 22 21 21 20 18 17 16 19 16 14 13 14 14 13 12 12 10 10 11 11 11 12 11 11 11 10 10 11 10 10 10 9 9 9 8 8 8 8 8 9 9 9 10 10 10 9 10
26 23 23 23 21 22 19 18 17 20 19 16 15 15 14 13 12 12 11 10 11 11 12 12 12 12 12 11 11 11 11 11 10 10 10 9 9 9 9 9 9 10 10 10 11 11 11 11 10
28 26 23 22 22 21 18 19 18 19 19 17 16 15 15 14 14 14 13 11 11 12 12 12 13 13 12 12 12 12 12 12 11 10 11 10 9 9 9 9 9 10 10 11 12 12 12 12 12
29 28 25 20 17 16 16 18 17 19 21 20 18 17 16 16 15 15 14 13 12 13 13 13 13 13 13 13 12 12 13 14 13 12 11 11 10 9 9 9 10 11 11 12 12 12 12 13 13
29 28 24 20 16 15 16 17 18 21 21 20 18 17 17 17 16 16 15 14 13 13 14 14 14 14 13 13 13 14 14 13 13 12 10 10 10 10 10 10 10 10 12 12 13 13 13 13 14
29 27 26 26 22 19 17 18 20 20 20 19 18 17 18 18 18 17 16 16 15 15 15 15 15 15 14 14 15 14 14 14 13 12 12 11 11 11 11 11 11 12 12 13 13 14 14 14 14
30 29 29 27 24 20 17 18 19 22 22 20 18 17 16 16 17 17 17 16 16 17 16 16 16 16 15 15 15 14 14 14 14 13 12 12 12 13 13 13 13 13 14 14 15 15 15 16 16
28 28 28 28 27 25 21 18 18 20 20 19 18 16 16 17 17 17 18 17 17 17 17 17 16 15 15 15 15 15 15 15 15 14 13 13 14 14 14 15 15 15 15 16 16 17 16 17 18
Wind_Direction
73 67 67 62 55 52 46 41 39 42 50 54 59 64 66 66 69 70 72 74 73 74 80 80 76 77 82 84 89 99 100 104 110 112 112 111 109 108 106 104 102 101 102 95 92 92 91 92 90
76 71 64 57 50 42 39 36 39 42 46 50 53 58 63 65 68 69 68 70 72 71 74 75 73 73 80 84 85 89 94 99 109 111 112 110 110 109 107 105 101 99 99 96 93 88 90 93 92
79 74 61 54 33 33 32 31 39 41 43 48 50 52 57 62 64 64 66 66 70 71 71 70 69 70 71 77 81 84 82 88 105 115 115 115 112 110 107 106 104 104 102 101 95 92 95 96 94
83 74 64 50 31 29 27 28 36 37 37 43 47 50 56 63 61 60 62 63 63 67 69 69 68 67 65 66 70 74 73 79 95 112 115 116 118 112 108 108 108 106 102 99 97 98 98 99 97
83 71 65 39 26 22 24 27 31 33 31 38 44 44 50 58 61 60 57 57 58 61 68 66 66 63 61 64 63 64 71 77 84 93 101 108 114 119 110 108 107 103 98 96 91 92 98 100 96
85 69 57 24 20 16 21 25 25 25 26 31 38 41 47 53 59 58 56 55 55 55 60 56 59 58 53 54 55 60 70 76 79 86 90 94 101 102 110 107 105 98 96 96 91 85 84 96 98
90 79 63 22 360 9 14 20 21 23 26 29 33 36 41 47 55 58 54 52 51 53 51 51 53 49 46 43 43 52 64 69 73 73 80 86 100 97 96 92 90 89 88 89 90 88 84 93 95
101 95 68 21 348 344 360 15 19 24 24 26 29 31 35 42 47 51 51 46 43 45 45 47 47 42 35 32 41 42 52 56 59 61 63 72 86 88 93 88 91 88 86 83 83 80 82 91 90
103 88 73 0 336 338 347 11 16 17 21 26 26 27 29 36 42 44 45 44 40 39 41 46 43 39 31 32 37 38 44 45 50 54 51 63 71 81 95 86 88 83 86 85 77 73 82 86 91
114 97 97 179 317 337 334 358 2 10 19 25 23 23 25 30 36 40 42 40 37 34 33 35 34 30 28 27 26 31 38 38 37 44 49 53 52 49 65 61 82 78 84 88 78 73 75 82 83
140 144 191 196 241 293 344 349 351 1 13 14 15 17 23 27 31 36 36 34 31 28 26 26 25 23 26 23 22 28 34 39 35 42 41 42 45 35 46 44 55 75 78 85 78 70 79 81 74
169 179 197 195 220 234 282 320 340 342 360 7 8 11 17 21 22 26 28 25 23 20 19 19 20 17 17 19 25 35 43 38 38 41 39 31 27 23 39 45 48 53 54 67 68 55 69 71 61
197 203 221 231 225 242 251 290 315 326 336 352 358 3 8 14 15 17 20 20 19 15 11 9 8 7 9 14 21 25 29 27 39 31 24 17 14 11 24 31 32 33 28 26 43 47 45 36 48
208 211 229 240 238 243 244 273 298 311 325 333 343 354 4 8 10 12 14 14 13 12 11 6 360 354 353 358 2 8 15 21 24 12 5 3 1 0 1 4 9 11 0 357 343 332 356 17 18
211 214 224 240 247 254 250 267 279 291 306 319 328 340 358 1 0 4 4 7 10 10 9 4 358 350 346 344 347 345 353 353 350 345 337 339 345 352 347 342 342 342 337 335 334 326 319 322 331
214 217 222 238 251 258 251 264 277 281 294 305 316 328 344 354 355 356 356 358 2 4 4 3 358 352 345 340 337 333 325 327 328 322 314 317 326 330 331 329 328 327 322 317 317 315 306 299 306
216 222 228 234 253 250 249 260 271 278 287 298 302 314 331 339 344 349 351 352 354 357 358 357 354 348 344 341 336 331 321 318 317 313 304 306 310 313 318 321 323 323 315 311 309 307 301 299 298
217 222 223 231 249 249 250 259 263 276 279 283 293 299 319 328 332 337 341 344 347 350 352 349 346 345 342 337 332 327 321 314 311 313 310 305 304 304 304 308 314 319 314 310 306 307 303 302 300
212 221 224 231 243 249 249 252 255 261 270 275 280 295 303 312 321 328 331 335 337 340 343 343 342 344 340 332 327 320 316 308 308 309 311 306 302 299 303 309 317 316 308 304 303 300 296 294 296
211 215 216 227 242 246 245 250 256 256 265 276 279 287 296 303 314 321 324 330 335 336 337 340 338 337 336 332 329 323 318 312 308 303 304 306 304 300 302 306 312 311 306 306 302 294 293 293 290
216 216 211 222 237 248 248 250 256 259 263 272 277 283 290 298 304 311 318 320 327 331 334 336 337 337 335 334 331 327 321 317 311 309 306 304 303 306 303 303 305 309 306 305 304 293 289 291 291
221 218 215 224 233 241 247 251 259 263 263 265 272 278 283 289 297 302 309 312 316 322 326 329 333 334 334 334 332 326 322 318 314 307 301 298 296 303 307 299 299 303 304 305 306 300 296 294 294
220 218 220 225 236 237 238 248 254 267 268 267 271 276 280 286 292 298 305 307 311 317 321 323 326 327 328 326 326 327 323 319 316 309 302 299 299 302 306 302 299 300 301 303 303 302 300 296 293
219 219 227 228 233 239 234 237 248 259 265 267 271 274 275 280 285 291 298 304 306 310 314 318 320 321 322 323 321 320 319 314 313 308 301 299 298 298 300 300 299 300 299 301 303 302 300 297 293
219 219 226 231 234 243 241 239 245 252 260 262 260 266 271 274 278 284 291 298 300 304 310 314 317 316 314 314 316 317 315 314 313 311 303 302 301 299 300 295 298 304 303 300 300 302 301 298 294
223 223 224 230 243 253 250 245 241 249 254 258 257 258 267 273 277 279 284 288 291 297 305 310 312 314 312 309 312 317 317 317 318 315 307 303 303 304 301 299 300 301 305 303 298 299 300 299 296
224 223 222 224 230 246 245 247 245 247 252 254 252 259 262 265 269 273 277 282 285 291 299 305 307 309 311 310 312 313 311 315 317 313 308 305 305 304 303 302 300 300 300 301 299 300 300 300 299
223 221 215 216 222 233 238 245 253 261 261 261 258 257 259 263 267 270 273 278 280 285 292 299 302 304 307 306 307 309 308 313 315 313 311 307 303 302 303 304 303 301 299 298 300 299 298 299 298
220 218 216 218 219 228 239 243 242 250 257 261 260 255 256 261 266 267 267 274 277 280 286 294 297 299 303 304 302 305 303 306 309 308 306 305 304 303 302 306 304 299 295 297 299 299 297 297 297
222 221 218 218 218 219 228 241 238 244 253 257 257 255 256 257 261 265 266 269 274 278 283 290 293 295 297 298 298 299 299 301 299 301 298 298 300 301 300 304 306 304 299 296 297 298 298 298 298
Height
5904 5903 5902 5901 5899 5901 5901 5900 5898 5897 5896 5895 5894 5894 5892 5892 5893 5894 5891 5890 5890 5890 5889 5889 5889 5889 5889 5889 5889 5889 5889 5888 5889 5889 5890 5890 5890 5891 5891 5891 5891 5891 5891 5892 5892 5892 5892 5892 5893
5906 5906 5904 5903 5904 5904 5904 5903 5901 5900 5899 5897 5897 5896 5895 5894 5894 5894 5892 5892 5892 5892 5892 5891 5891 5891 5891 5891 5891 5891 5891 5890 5891 5891 5891 5892 5892 5892 5892 5892 5892 5892 5893 5893 5893 5894 5894 5894 5894
5908 5908 5906 5906 5909 5907 5907 5905 5904 5902 5901 5900 5899 5899 5898 5897 5896 5896 5895 5895 5894 5894 5894 5894 5893 5893 5893 5893 5893 5893 5892 5893 5893 5892 5893 5893 5893 5893 5894 5894 5894 5894 5895 5895 5895 5895 5895 5896 5896
5911 5909 5908 5912 5911 5911 5909 5908 5906 5905 5904 5903 5902 5901 5899 5899 5898 5898 5897 5897 5896 5896 5896 5895 5895 5895 5895 5895 5895 5894 5894 5894 5894 5894 5894 5895 5895 5895 5895 5895 5895 5896 5896 5896 5896 5897 5897 5897 5897
5911 5910 5912 5915 5914 5913 5912 5910 5909 5908 5906 5905 5904 5903 5902 5901 5900 5899 5899 5899 5898 5898 5897 5897 5897 5897 5897 5897 5897 5896 5896 5896 5896 5896 5896 5896 5896 5896 5896 5897 5897 5897 5897 5898 5898 5898 5898 5898 5899
5913 5912 5915 5917 5916 5916 5914 5912 5911 5910 5908 5907 5906 5905 5904 5903 5902 5901 5901 5901 5900 5899 5899 5899 5899 5899 5899 5899 5898 5898 5898 5898 5898 5898 5898 5898 5898 5898 5898 5898 5898 5899 5899 5899 5899 5899 5899 5899 5900
5915 5916 5919 5921 5919 5917 5916 5914 5913 5912 5910 5909 5908 5907 5906 5905 5905 5904 5903 5902 5902 5901 5901 5900 5900 5900 5900 5900 5900 5900 5900 5899 5899 5899 5899 5899 5899 5899 5899 5900 5900 5900 5900 5900 5900 5900 5900 5901 5901
5917 5918 5920 5922 5921 5920 5918 5916 5915 5914 5913 5912 5910 5909 5908 5907 5906 5906 5905 5904 5903 5903 5902 5902 5902 5902 5901 5901 5901 5901 5901 5901 5901 5901 5901 5901 5901 5901 5901 5901 5901 5901 5901 5901 5902 5902 5902 5902 5902
5919 5922 5923 5924 5922 5921 5919 5918 5917 5916 5914 5914 5913 5912 5911 5909 5908 5907 5906 5906 5905 5904 5904 5904 5903 5903 5903 5902 5902 5902 5902 5902 5902 5902 5902 5902 5902 5902 5902 5902 5902 5902 5902 5903 5903 5903 5903 5903 5904
5921 5923 5925 5925 5923 5922 5921 5919 5918 5917 5916 5915 5914 5913 5912 5911 5910 5909 5908 5907 5907 5906 5906 5905 5905 5905 5904 5904 5904 5903 5903 5903 5903 5903 5903 5903 5903 5903 5904 5904 5903 5903 5903 5904 5904 5904 5904 5905 5905
5921 5924 5925 5925 5924 5923 5922 5921 5919 5918 5918 5916 5916 5915 5913 5913 5912 5911 5910 5909 5908 5908 5907 5907 5906 5906 5906 5905 5905 5904 5904 5904 5904 5904 5904 5905 5905 5905 5905 5905 5905 5904 5905 5905 5905 5905 5905 5906 5906
5921 5923 5924 5924 5924 5924 5923 5922 5921 5920 5919 5918 5917 5916 5915 5914 5913 5912 5912 5911 5910 5909 5909 5908 5907 5907 5907 5907 5906 5905 5906 5906 5905 5905 5905 5906 5906 5906 5906 5906 5906 5906 5906 5906 5906 5906 5907 5907 5907
5921 5922 5923 5923 5923 5924 5923 5923 5922 5921 5920 5919 5918 5917 5916 5915 5914 5914 5913 5912 5911 5910 5910 5909 5909 5908 5908 5908 5907 5906 5907 5906 5906 5906 5906 5906 5906 5906 5906 5906 5906 5906 5907 5907 5907 5907 5907 5907 5907
5920 5921 5923 5923 5924 5923 5923 5922 5922 5922 5921 5920 5919 5918 5917 5916 5916 5915 5914 5913 5912 5911 5911 5910 5910 5909 5909 5909 5908 5907 5907 5907 5907 5907 5907 5907 5907 5907 5907 5907 5907 5907 5907 5907 5907 5907 5908 5908 5908
5917 5920 5922 5923 5923 5923 5924 5923 5922 5921 5921 5921 5920 5918 5917 5917 5916 5916 5915 5914 5913 5913 5912 5911 5910 5910 5910 5909 5909 5908 5908 5908 5907 5907 5907 5907 5907 5907 5907 5907 5907 5907 5907 5907 5907 5907 5908 5908 5908
5915 5918 5921 5923 5923 5923 5925 5923 5921 5921 5921 5921 5920 5919 5918 5918 5917 5916 5916 5915 5914 5913 5913 5912 5911 5911 5910 5910 5909 5909 5908 5908 5908 5908 5908 5908 5907 5907 5907 5907 5907 5907 5907 5907 5907 5907 5908 5908 5908
5914 5917 5920 5922 5922 5923 5923 5923 5921 5920 5921 5920 5920 5919 5918 5918 5917 5917 5916 5916 5915 5914 5913 5912 5912 5911 5910 5910 5909 5909 5908 5908 5908 5908 5908 5908 5908 5907 5907 5907 5907 5907 5907 5906 5907 5907 5907 5907 5908
5914 5917 5920 5922 5922 5922 5922 5922 5921 5920 5920 5920 5919 5918 5918 5918 5918 5917 5917 5916 5915 5914 5913 5913 5912 5911 5910 5910 5909 5908 5908 5908 5908 5908 5908 5908 5907 5907 5907 5907 5907 5907 5906 5906 5906 5906 5906 5907 5907
5912 5915 5918 5921 5921 5921 5921 5920 5921 5920 5919 5920 5919 5918 5917 5918 5918 5917 5916 5916 5915 5915 5914 5913 5912 5911 5910 5909 5909 5908 5907 5907 5907 5907 5907 5907 5907 5906 5906 5906 5906 5906 5906 5905 5905 5905 5906 5906 5906
5907 5911 5916 5919 5919 5918 5919 5919 5919 5919 5918 5919 5919 5918 5917 5917 5917 5917 5916 5915 5915 5914 5913 5913 5912 5911 5910 5909 5908 5907 5907 5907 5907 5906 5906 5906 5906 5906 5906 5905 5905 5905 5905 5905 5904 5904 5904 5904 5904
5903 5908 5912 5916 5916 5915 5917 5918 5917 5917 5916 5917 5918 5917 5916 5916 5916 5916 5916 5915 5915 5914 5913 5913 5912 5910 5909 5908 5907 5907 5906 5906 5906 5905 5905 5905 5905 5905 5905 5905 5905 5904 5904 5904 5903 5903 5903 5903 5903
5899 5904 5908 5912 5912 5913 5915 5916 5915 5913 5914 5915 5915 5916 5915 5915 5915 5914 5915 5914 5914 5914 5913 5912 5911 5910 5909 5908 5906 5906 5905 5905 5904 5904 5903 5903 5903 5903 5903 5903 5903 5903 5902 5902 5902 5902 5901 5901 5901
5895 5900 5903 5907 5908 5910 5911 5913 5914 5911 5911 5912 5912 5913 5914 5914 5913 5913 5913 5913 5913 5912 5912 5911 5910 5909 5908 5907 5906 5905 5904 5904 5903 5902 5902 5902 5902 5902 5902 5902 5902 5901 5901 5901 5900 5900 5900 5899 5899
5891 5896 5898 5901 5904 5905 5908 5910 5911 5910 5909 5910 5910 5911 5912 5912 5911 5911 5911 5911 5911 5911 5910 5910 5909 5908 5906 5905 5905 5904 5903 5902 5901 5901 5900 5900 5900 5900 5900 5900 5899 5899 5899 5899 5899 5898 5898 5897 5897
5886 5891 5894 5897 5899 5902 5905 5907 5909 5907 5906 5907 5907 5908 5909 5909 5909 5909 5909 5910 5909 5909 5909 5908 5907 5906 5905 5904 5903 5902 5901 5900 5899 5899 5898 5898 5898 5898 5898 5897 5897 5897 5897 5897 5897 5896 5895 5895 5894
5881 5886 5891 5895 5898 5900 5901 5903 5906 5905 5904 5904 5905 5905 5906 5907 5907 5907 5907 5907 5908 5907 5907 5906 5906 5904 5903 5902 5901 5901 5900 5898 5897 5897 5896 5896 5896 5896 5896 5896 5896 5895 5895 5895 5894 5894 5893 5892 5892
5876 5881 5888 5893 5896 5898 5900 5900 5901 5900 5901 5902 5902 5902 5904 5904 5904 5905 5905 5905 5905 5905 5905 5904 5903 5902 5901 5900 5899 5899 5898 5896 5895 5894 5894 5894 5894 5894 5894 5893 5892 5892 5893 5892 5892 5891 5890 5890 5889
5872 5877 5883 5886 5891 5894 5897 5896 5896 5896 5897 5898 5898 5900 5901 5901 5901 5902 5901 5902 5903 5902 5902 5902 5901 5900 5899 5898 5897 5897 5896 5894 5893 5893 5892 5892 5892 5892 5892 5891 5891 5891 5890 5890 5889 5888 5888 5887 5886
5867 5872 5877 5882 5886 5891 5893 5895 5893 5893 5893 5894 5895 5896 5897 5898 5898 5898 5897 5899 5900 5900 5899 5899 5898 5898 5897 5896 5895 5894 5893 5892 5891 5891 5890 5890 5890 5890 5890 5889 5889 5888 5887 5887 5886 5885 5884 5884 5883
5862 5867 5872 5877 5881 5885 5887 5890 5887 5888 5889 5890 5891 5892 5894 5894 5895 5895 5894 5895 5896 5896 5896 5896 5895 5895 5894 5893 5892 5891 5891 5890 5889 5889 5888 5888 5888 5888 5887 5887 5886 5885 5884 5883 5883 5882 5881 5880 5879